Location: Passau
(48.5830°N, 13.4830°E)
Time: 02:29:23
(UTC+01:00)

NOAA 19 - Pass Details

Date: 03 December 2021
Orbit: 841 x 860 km, 99.2° (Epoch: 17 January)

Event Time Altitude Azimuth Distance (km) Brightness Sun altitude
Rises 06:34:22 0° 27° (NNE) 3,429 8.4 -10.4°
Reaches altitude 10° 06:37:25 10° 44° (NE) 2,491 7.9 -9.9°
Maximum altitude 06:41:24 20° 91° (E) 1,876 8.0 -9.3°
Drops below altitude 10° 06:45:23 10° 137° (SE) 2,486 8.9 -8.7°
Sets 06:48:24 0° 154° (SSE) 3,420 9.2 -8.2°
